Location: Finnegan
(51.1333°N, 112.0833°W)
Time: 12:34:29
(UTC+00:00)

N. Korean satellite - Pass Details

Date: 06 December 2021
Orbit: 447 x 490 km, 97.3° (Epoch: 27 January)

Event Time Altitude Azimuth Distance (km) Brightness Sun altitude
Rises 00:21:55 0° 189° (S) 2,521 10.7 -8.9°
Reaches altitude 10° 00:24:09 10° 200° (SSW) 1,639 9.9 -9.2°
Maximum altitude 00:27:18 31° 264° (W) 854 8.6 -9.6°
Drops below altitude 10° 00:30:27 10° 328° (NNW) 1,628 9.3 -10.1°
Sets 00:32:40 0° 339° (NNW) 2,500 10.2 -10.4°
